BER742 EDDB-LIRN

Flight info

Callsign BER742
Flight time 1h 57m
Altitude 35000
Route LUROS3Z LUROS Y211 BEBKU Z36 MAREM/N0466F350 DCT APRAQ DCT ADLET DCT LIMRA DCT RADLY/N0463F360 DCT DARZA/N0462F350 DCT KUDUL DCT SAL/N0462F360 DCT ELGUS/N0463F350 DCT SUXUB DCT ERIKA
Aircraft B738/M-SDE2E3FGHIRWXY/LB1

Departure

Time 2026-05-07 10:24
Airport Berlin Brandenburg Airport (EDDB)

Arrival

Time 2026-05-07 12:21
Airport Naples International Airport (LIRN)
Time Latitude Longitude Altitude Speed Heading
2026-05-07 09:56 52.36321 13.50637 154 ft 0 kts 69°
2026-05-07 10:12 52.36321 13.50634 154 ft 2 kts 69°
2026-05-07 10:13 52.36312 13.50596 153 ft 4 kts 69°
2026-05-07 10:13 52.36304 13.50553 153 ft 4 kts 82°
2026-05-07 10:13 52.36304 13.50511 152 ft 4 kts 107°
2026-05-07 10:13 52.36317 13.50480 152 ft 3 kts 157°
2026-05-07 10:14 52.36323 13.50476 152 ft 0 kts 159°
2026-05-07 10:16 52.36305 13.50489 152 ft 7 kts 158°
2026-05-07 10:16 52.36230 13.50535 152 ft 16 kts 159°
2026-05-07 10:17 52.36124 13.50603 152 ft 16 kts 158°
2026-05-07 10:17 52.36022 13.50667 152 ft 15 kts 159°
2026-05-07 10:17 52.35924 13.50729 152 ft 15 kts 159°
2026-05-07 10:17 52.35827 13.50766 150 ft 14 kts 194°
2026-05-07 10:18 52.35773 13.50622 147 ft 16 kts 249°
2026-05-07 10:18 52.35725 13.50423 147 ft 22 kts 249°
2026-05-07 10:18 52.35671 13.50190 147 ft 22 kts 249°
2026-05-07 10:18 52.35617 13.49967 147 ft 21 kts 249°
2026-05-07 10:19 52.35565 13.49750 147 ft 20 kts 249°
2026-05-07 10:19 52.35515 13.49537 147 ft 20 kts 249°
2026-05-07 10:19 52.35467 13.49334 147 ft 19 kts 249°
2026-05-07 10:19 52.35420 13.49134 147 ft 18 kts 248°
2026-05-07 10:20 52.35374 13.48943 147 ft 18 kts 249°
2026-05-07 10:20 52.35331 13.48760 147 ft 17 kts 249°
2026-05-07 10:20 52.35285 13.48560 148 ft 20 kts 250°
2026-05-07 10:20 52.35228 13.48328 148 ft 24 kts 248°
2026-05-07 10:21 52.35162 13.48051 149 ft 28 kts 249°
2026-05-07 10:21 52.35094 13.47741 149 ft 30 kts 250°
2026-05-07 10:21 52.35015 13.47407 150 ft 32 kts 248°
2026-05-07 10:21 52.34931 13.47081 150 ft 30 kts 248°
2026-05-07 10:22 52.34875 13.46841 150 ft 20 kts 248°
2026-05-07 10:22 52.34797 13.46718 150 ft 16 kts 171°
2026-05-07 10:22 52.34697 13.46780 154 ft 15 kts 159°
2026-05-07 10:22 52.34602 13.46842 158 ft 14 kts 152°
2026-05-07 10:23 52.34574 13.46977 159 ft 14 kts 71°
2026-05-07 10:23 52.34616 13.47153 157 ft 32 kts 68°
2026-05-07 10:23 52.34788 13.47879 158 ft 102 kts 69°
2026-05-07 10:23 52.35136 13.49328 249 ft 166 kts 68°
2026-05-07 10:24 52.35588 13.51269 1052 ft 189 kts 68°
2026-05-07 10:24 52.36022 13.53245 2308 ft 186 kts 76°
2026-05-07 10:24 52.36051 13.55535 2843 ft 211 kts 86°
2026-05-07 10:24 52.36157 13.57967 3453 ft 221 kts 83°
2026-05-07 10:25 52.36324 13.60518 4085 ft 227 kts 82°
2026-05-07 10:25 52.36501 13.63084 4833 ft 231 kts 82°
2026-05-07 10:25 52.36685 13.65725 5595 ft 234 kts 82°
2026-05-07 10:25 52.36871 13.68403 6345 ft 238 kts 82°
2026-05-07 10:26 52.37058 13.71112 7017 ft 244 kts 82°
2026-05-07 10:26 52.37250 13.73910 7717 ft 248 kts 83°
2026-05-07 10:26 52.37399 13.76741 8392 ft 254 kts 93°
2026-05-07 10:26 52.37026 13.79660 8717 ft 277 kts 107°
2026-05-07 10:27 52.36436 13.82787 9172 ft 291 kts 107°
2026-05-07 10:27 52.35832 13.85955 9882 ft 297 kts 107°
2026-05-07 10:27 52.35219 13.89225 10603 ft 300 kts 107°
2026-05-07 10:27 52.34615 13.92505 11354 ft 301 kts 107°
2026-05-07 10:28 52.34023 13.95765 12093 ft 304 kts 108°
2026-05-07 10:28 52.33418 13.99102 12834 ft 306 kts 108°
2026-05-07 10:28 52.32806 14.02476 13576 ft 309 kts 108°
2026-05-07 10:28 52.32035 14.05715 14191 ft 310 kts 125°
2026-05-07 10:29 52.30530 14.08237 14793 ft 310 kts 150°
2026-05-07 10:29 52.28515 14.09554 14946 ft 324 kts 172°
2026-05-07 10:29 52.26214 14.10102 15126 ft 343 kts 175°
2026-05-07 10:30 52.21293 14.11036 15810 ft 367 kts 175°
2026-05-07 10:30 52.18736 14.11524 16480 ft 369 kts 175°
2026-05-07 10:30 52.16193 14.12025 17152 ft 371 kts 175°
2026-05-07 10:30 52.13613 14.12544 17779 ft 374 kts 175°
2026-05-07 10:31 52.11005 14.13075 18387 ft 377 kts 175°
2026-05-07 10:31 52.08401 14.13609 18918 ft 380 kts 175°
2026-05-07 10:31 52.05795 14.14145 19463 ft 382 kts 175°
2026-05-07 10:31 52.03138 14.14691 20019 ft 384 kts 175°
2026-05-07 10:32 52.00482 14.15236 20559 ft 387 kts 174°
2026-05-07 10:32 51.97792 14.15787 21075 ft 390 kts 174°
2026-05-07 10:32 51.95084 14.16341 21589 ft 392 kts 174°
2026-05-07 10:32 51.92395 14.16889 22088 ft 395 kts 175°
2026-05-07 10:33 51.89633 14.16891 22540 ft 395 kts 191°
2026-05-07 10:33 51.87030 14.15614 23027 ft 395 kts 203°
2026-05-07 10:33 51.84474 14.13852 23522 ft 398 kts 204°
2026-05-07 10:33 51.81948 14.12051 23889 ft 401 kts 204°
2026-05-07 10:34 51.79414 14.10243 24319 ft 402 kts 204°
2026-05-07 10:34 51.76836 14.08422 24743 ft 403 kts 204°
2026-05-07 10:34 51.74271 14.06631 25139 ft 404 kts 204°
2026-05-07 10:34 51.71658 14.04823 25528 ft 406 kts 204°
2026-05-07 10:35 51.69082 14.03051 25942 ft 408 kts 204°
2026-05-07 10:35 51.66448 14.01246 26352 ft 409 kts 204°
2026-05-07 10:35 51.63847 13.99465 26748 ft 411 kts 204°
2026-05-07 10:35 51.61195 13.97652 27130 ft 412 kts 204°
2026-05-07 10:36 51.58572 13.95862 27510 ft 413 kts 204°
2026-05-07 10:36 51.55908 13.94044 27873 ft 415 kts 204°
2026-05-07 10:36 51.53226 13.92216 28229 ft 416 kts 204°
2026-05-07 10:36 51.50576 13.90413 28558 ft 417 kts 204°
2026-05-07 10:37 51.47914 13.88604 28900 ft 418 kts 204°
2026-05-07 10:37 51.45157 13.86966 29217 ft 421 kts 198°
2026-05-07 10:37 51.42304 13.85978 29525 ft 424 kts 192°
2026-05-07 10:37 51.39398 13.85169 29847 ft 425 kts 192°
2026-05-07 10:38 51.36477 13.84364 30125 ft 426 kts 192°
2026-05-07 10:38 51.33532 13.83544 30357 ft 427 kts 193°
2026-05-07 10:38 51.30618 13.82721 30564 ft 429 kts 193°
2026-05-07 10:38 51.27661 13.81877 30825 ft 429 kts 193°
2026-05-07 10:39 51.24749 13.81041 31150 ft 428 kts 193°
2026-05-07 10:39 51.21841 13.80205 31475 ft 427 kts 193°
2026-05-07 10:39 51.18913 13.79362 31750 ft 426 kts 193°
2026-05-07 10:39 51.16004 13.78525 32023 ft 426 kts 193°
2026-05-07 10:40 51.13080 13.77686 32316 ft 425 kts 193°
2026-05-07 10:40 51.10154 13.76847 32586 ft 425 kts 193°
2026-05-07 10:40 51.07267 13.76020 32855 ft 425 kts 193°
2026-05-07 10:40 51.04346 13.75185 33142 ft 424 kts 193°
2026-05-07 10:41 51.01466 13.74364 33426 ft 423 kts 193°
2026-05-07 10:41 50.98551 13.73532 33670 ft 423 kts 193°
2026-05-07 10:41 50.95661 13.72709 33910 ft 423 kts 193°
2026-05-07 10:41 50.92754 13.71882 34147 ft 422 kts 193°
2026-05-07 10:42 50.89884 13.71064 34361 ft 421 kts 194°
2026-05-07 10:42 50.87020 13.69946 34527 ft 420 kts 199°
2026-05-07 10:42 50.84237 13.68660 34682 ft 420 kts 199°
2026-05-07 10:42 50.81441 13.67370 34877 ft 420 kts 199°
2026-05-07 10:43 50.78602 13.66083 35065 ft 420 kts 198°
2026-05-07 10:43 50.75802 13.64850 35227 ft 421 kts 195°
2026-05-07 10:43 50.72875 13.64203 35353 ft 427 kts 186°
2026-05-07 10:43 50.69908 13.64260 35522 ft 430 kts 179°
2026-05-07 10:44 50.66918 13.64952 35694 ft 435 kts 169°
2026-05-07 10:44 50.64009 13.66253 35844 ft 437 kts 167°
2026-05-07 10:44 50.61118 13.67646 36000 ft 438 kts 167°
2026-05-07 10:44 50.58182 13.69083 36169 ft 438 kts 167°
2026-05-07 10:45 50.55303 13.70486 36315 ft 438 kts 167°
2026-05-07 10:45 50.52365 13.71902 36464 ft 438 kts 167°
2026-05-07 10:45 50.49453 13.73288 36579 ft 439 kts 167°
2026-05-07 10:45 50.46517 13.74674 36711 ft 440 kts 167°
2026-05-07 10:46 50.43582 13.76051 36851 ft 440 kts 167°
2026-05-07 10:46 50.40665 13.77416 36906 ft 442 kts 167°
2026-05-07 10:46 50.34746 13.80175 36925 ft 446 kts 167°
2026-05-07 10:47 50.28758 13.82962 36927 ft 449 kts 167°
2026-05-07 10:47 50.22775 13.85740 36926 ft 451 kts 167°
2026-05-07 10:48 50.16768 13.88524 36930 ft 452 kts 167°
2026-05-07 10:48 50.10755 13.91303 36946 ft 452 kts 167°
2026-05-07 10:49 50.04701 13.94093 36937 ft 452 kts 167°
2026-05-07 10:49 49.98677 13.96862 36931 ft 452 kts 167°
2026-05-07 10:50 49.92661 13.99620 36935 ft 451 kts 168°
2026-05-07 10:50 49.86648 14.02369 36939 ft 450 kts 168°
2026-05-07 10:51 49.81661 14.04644 36944 ft 449 kts 168°
2026-05-07 10:51 49.75692 14.07360 36944 ft 448 kts 168°
2026-05-07 10:52 49.69728 14.10068 36945 ft 446 kts 168°
2026-05-07 10:52 49.63762 14.12557 36940 ft 441 kts 175°
2026-05-07 10:53 49.57696 14.13606 36948 ft 438 kts 178°
2026-05-07 10:53 49.51610 14.14535 36949 ft 437 kts 178°
2026-05-07 10:54 49.45570 14.15494 36954 ft 436 kts 178°
2026-05-07 10:54 49.39541 14.16481 36960 ft 436 kts 178°
2026-05-07 10:55 49.33532 14.17471 36961 ft 436 kts 178°
2026-05-07 10:55 49.27473 14.18468 36957 ft 435 kts 178°
2026-05-07 10:56 49.21480 14.19450 36958 ft 435 kts 178°
2026-05-07 10:56 49.15446 14.20437 36959 ft 434 kts 178°
2026-05-07 10:57 49.09459 14.21414 36961 ft 433 kts 178°
2026-05-07 10:57 49.03481 14.22386 36960 ft 432 kts 178°
2026-05-07 10:58 48.97518 14.23354 36961 ft 432 kts 178°
2026-05-07 10:58 48.91538 14.24322 36987 ft 431 kts 178°
2026-05-07 10:59 48.85583 14.25283 36972 ft 431 kts 178°
2026-05-07 10:59 48.79638 14.26241 36977 ft 431 kts 178°
2026-05-07 11:00 48.73679 14.27199 36976 ft 431 kts 178°
2026-05-07 11:00 48.67721 14.28154 36985 ft 431 kts 178°
2026-05-07 11:01 48.61765 14.29107 36989 ft 431 kts 178°
2026-05-07 11:01 48.55796 14.30069 36993 ft 432 kts 178°
2026-05-07 11:02 48.49794 14.31384 36995 ft 434 kts 175°
2026-05-07 11:02 48.43862 14.32818 36988 ft 435 kts 175°
2026-05-07 11:03 48.37844 14.34232 36996 ft 435 kts 176°
2026-05-07 11:03 48.31880 14.35598 36985 ft 437 kts 176°
2026-05-07 11:04 48.25877 14.36960 36989 ft 438 kts 176°
2026-05-07 11:04 48.19848 14.38326 37001 ft 439 kts 176°
2026-05-07 11:05 48.13780 14.39698 36994 ft 440 kts 176°
2026-05-07 11:05 48.07716 14.41066 36997 ft 441 kts 176°
2026-05-07 11:06 48.01631 14.42436 37013 ft 442 kts 176°
2026-05-07 11:06 47.95543 14.43804 37010 ft 443 kts 176°
2026-05-07 11:07 47.89539 14.45645 37002 ft 450 kts 165°
2026-05-07 11:07 47.83672 14.49225 37000 ft 453 kts 162°
2026-05-07 11:08 47.77910 14.52868 36995 ft 451 kts 162°
2026-05-07 11:08 47.72136 14.56461 36993 ft 450 kts 162°
2026-05-07 11:09 47.66364 14.60005 36983 ft 450 kts 163°
2026-05-07 11:09 47.60583 14.63534 36975 ft 449 kts 163°
2026-05-07 11:10 47.54790 14.67062 36968 ft 447 kts 163°
2026-05-07 11:10 47.49062 14.70544 36942 ft 445 kts 163°
2026-05-07 11:11 47.43346 14.74010 36970 ft 444 kts 163°
2026-05-07 11:11 47.37616 14.77474 36933 ft 447 kts 163°
2026-05-07 11:12 47.31855 14.80952 36936 ft 449 kts 163°
2026-05-07 11:12 47.26041 14.84454 36929 ft 449 kts 163°
2026-05-07 11:13 47.20268 14.87923 36933 ft 449 kts 163°
2026-05-07 11:13 47.14481 14.91392 36943 ft 449 kts 163°
2026-05-07 11:14 47.08685 14.94857 36924 ft 450 kts 163°
2026-05-07 11:14 47.02908 14.98304 36927 ft 449 kts 163°
2026-05-07 11:15 46.97123 15.01746 36943 ft 451 kts 163°
2026-05-07 11:15 46.91303 15.05202 36958 ft 453 kts 163°
2026-05-07 11:16 46.85447 15.08670 36939 ft 454 kts 163°
2026-05-07 11:16 46.79619 15.12116 36927 ft 454 kts 163°
2026-05-07 11:17 46.73774 15.15565 36960 ft 452 kts 163°
2026-05-07 11:17 46.67910 15.18926 36956 ft 452 kts 168°
2026-05-07 11:18 46.61772 15.20287 36968 ft 441 kts 185°
2026-05-07 11:18 46.55733 15.19434 36965 ft 437 kts 192°
2026-05-07 11:19 46.49698 15.18275 36969 ft 439 kts 192°
2026-05-07 11:19 46.43634 15.17148 36965 ft 439 kts 191°
2026-05-07 11:20 46.37570 15.16061 36964 ft 439 kts 191°
2026-05-07 11:20 46.31530 15.14993 36978 ft 438 kts 191°
2026-05-07 11:21 46.25484 15.13927 36982 ft 438 kts 191°
2026-05-07 11:21 46.19453 15.12865 36990 ft 437 kts 192°
2026-05-07 11:22 46.13407 15.11801 36992 ft 437 kts 192°
2026-05-07 11:22 46.07377 15.10742 36988 ft 436 kts 191°
2026-05-07 11:23 46.01360 15.09689 36997 ft 436 kts 191°
2026-05-07 11:23 45.95354 15.08639 37095 ft 435 kts 191°
2026-05-07 11:24 45.89419 15.07608 36995 ft 424 kts 191°
2026-05-07 11:24 45.83572 15.06591 36991 ft 421 kts 191°
2026-05-07 11:25 45.77759 15.05579 37000 ft 421 kts 191°
2026-05-07 11:25 45.71928 15.04567 36996 ft 422 kts 191°
2026-05-07 11:26 45.66094 15.03558 36997 ft 423 kts 191°
2026-05-07 11:26 45.60239 15.02548 37008 ft 424 kts 191°
2026-05-07 11:27 45.54377 15.01538 37011 ft 425 kts 191°
2026-05-07 11:27 45.48487 15.00707 37002 ft 430 kts 184°
2026-05-07 11:28 45.42504 15.01113 37021 ft 432 kts 182°
2026-05-07 11:28 45.36492 15.01598 37013 ft 433 kts 182°
2026-05-07 11:29 45.30494 15.02048 37022 ft 432 kts 182°
2026-05-07 11:29 45.24467 15.02478 37021 ft 434 kts 182°
2026-05-07 11:30 45.18447 15.02903 37021 ft 434 kts 182°
2026-05-07 11:30 45.12428 15.03327 37027 ft 434 kts 182°
2026-05-07 11:31 45.06402 15.03750 37022 ft 434 kts 182°
2026-05-07 11:31 45.00356 15.04174 37028 ft 435 kts 183°
2026-05-07 11:32 44.91283 15.04809 37033 ft 435 kts 182°
2026-05-07 11:33 44.85244 15.05231 37029 ft 435 kts 183°
2026-05-07 11:33 44.79193 15.05653 37033 ft 435 kts 182°
2026-05-07 11:34 44.73136 15.06074 37024 ft 436 kts 183°
2026-05-07 11:34 44.67082 15.06494 37034 ft 436 kts 183°
2026-05-07 11:35 44.61019 15.07207 37026 ft 439 kts 180°
2026-05-07 11:35 44.54943 15.08150 37031 ft 439 kts 180°
2026-05-07 11:36 44.48873 15.09063 37025 ft 440 kts 180°
2026-05-07 11:36 44.42810 15.09934 37038 ft 439 kts 180°
2026-05-07 11:37 44.36733 15.10791 37027 ft 440 kts 180°
2026-05-07 11:37 44.30630 15.11649 37028 ft 440 kts 180°
2026-05-07 11:38 44.24553 15.12502 37023 ft 440 kts 180°
2026-05-07 11:38 44.18461 15.13357 37020 ft 440 kts 180°
2026-05-07 11:39 44.12362 15.14211 37020 ft 441 kts 180°
2026-05-07 11:39 44.06266 15.15063 37023 ft 441 kts 180°
2026-05-07 11:40 44.00160 15.15914 37019 ft 442 kts 180°
2026-05-07 11:40 43.94082 15.16100 37023 ft 433 kts 192°
2026-05-07 11:41 43.88280 15.14072 37034 ft 425 kts 205°
2026-05-07 11:41 43.82760 15.11148 37025 ft 426 kts 205°
2026-05-07 11:42 43.77229 15.08237 37024 ft 427 kts 205°
2026-05-07 11:42 43.71661 15.05356 37019 ft 427 kts 205°
2026-05-07 11:43 43.66121 15.02508 37019 ft 428 kts 205°
2026-05-07 11:43 43.60526 14.99635 37018 ft 428 kts 205°
2026-05-07 11:44 43.54937 14.96772 37018 ft 429 kts 205°
2026-05-07 11:44 43.49377 14.93796 37021 ft 429 kts 206°
2026-05-07 11:45 43.43844 14.90744 37016 ft 429 kts 207°
2026-05-07 11:45 43.38301 14.87698 37030 ft 429 kts 207°
2026-05-07 11:46 43.32752 14.84669 37022 ft 430 kts 207°
2026-05-07 11:46 43.28128 14.82155 37018 ft 430 kts 207°
2026-05-07 11:47 43.22562 14.79137 37020 ft 430 kts 207°
2026-05-07 11:47 43.16967 14.76109 37019 ft 431 kts 207°
2026-05-07 11:48 43.11400 14.73102 37015 ft 431 kts 207°
2026-05-07 11:48 43.05855 14.70111 37018 ft 431 kts 207°
2026-05-07 11:49 43.00264 14.67103 37019 ft 431 kts 207°
2026-05-07 11:49 42.94693 14.64111 37018 ft 431 kts 207°
2026-05-07 11:50 42.89132 14.61130 37017 ft 430 kts 207°
2026-05-07 11:50 42.83557 14.58147 37016 ft 430 kts 207°
2026-05-07 11:51 42.77988 14.55173 37015 ft 430 kts 207°
2026-05-07 11:51 42.72423 14.52207 37019 ft 430 kts 207°
2026-05-07 11:52 42.66864 14.49250 37018 ft 430 kts 207°
2026-05-07 11:52 42.61306 14.46299 37019 ft 430 kts 207°
2026-05-07 11:53 42.55735 14.43351 36996 ft 419 kts 207°
2026-05-07 11:53 42.53082 14.41955 37005 ft 408 kts 207°
2026-05-07 11:53 42.50430 14.40556 37012 ft 406 kts 208°
2026-05-07 11:54 42.45172 14.37772 36489 ft 409 kts 208°
2026-05-07 11:54 42.42532 14.36378 36037 ft 404 kts 208°
2026-05-07 11:54 42.39935 14.35009 35496 ft 404 kts 208°
2026-05-07 11:54 42.37301 14.33621 34913 ft 404 kts 208°
2026-05-07 11:55 42.34705 14.32256 34339 ft 404 kts 208°
2026-05-07 11:55 42.32065 14.30868 33697 ft 404 kts 207°
2026-05-07 11:55 42.29467 14.29504 33037 ft 405 kts 207°
2026-05-07 11:55 42.26820 14.28115 32403 ft 404 kts 207°
2026-05-07 11:56 42.24216 14.26751 31770 ft 404 kts 207°
2026-05-07 11:56 42.21585 14.25374 31230 ft 402 kts 207°
2026-05-07 11:56 42.19005 14.24028 30776 ft 398 kts 207°
2026-05-07 11:56 42.16432 14.22685 30320 ft 395 kts 207°
2026-05-07 11:57 42.13887 14.21357 29830 ft 391 kts 207°
2026-05-07 11:57 42.11371 14.20044 29335 ft 387 kts 206°
2026-05-07 11:57 42.08866 14.18737 28905 ft 383 kts 207°
2026-05-07 11:57 42.06373 14.17440 28408 ft 379 kts 207°
2026-05-07 11:58 42.03956 14.16182 27977 ft 375 kts 207°
2026-05-07 11:58 42.01518 14.14913 27526 ft 372 kts 206°
2026-05-07 11:58 41.99133 14.13672 27064 ft 369 kts 206°
2026-05-07 11:58 41.96733 14.12425 26609 ft 367 kts 206°
2026-05-07 11:59 41.94375 14.11201 26178 ft 364 kts 206°
2026-05-07 11:59 41.92008 14.09974 25727 ft 361 kts 205°
2026-05-07 11:59 41.89686 14.08774 25311 ft 358 kts 205°
2026-05-07 11:59 41.87283 14.07797 24879 ft 360 kts 196°
2026-05-07 12:00 41.84818 14.07283 24478 ft 360 kts 193°
2026-05-07 12:00 41.82324 14.06834 24043 ft 359 kts 192°
2026-05-07 12:00 41.79878 14.06398 23619 ft 358 kts 192°
2026-05-07 12:00 41.77407 14.05945 23107 ft 357 kts 192°
2026-05-07 12:01 41.74961 14.05490 22666 ft 354 kts 192°
2026-05-07 12:01 41.72520 14.05031 22213 ft 352 kts 192°
2026-05-07 12:01 41.70121 14.04578 21794 ft 348 kts 192°
2026-05-07 12:01 41.67721 14.04125 21376 ft 346 kts 192°
2026-05-07 12:02 41.65330 14.03729 20940 ft 347 kts 185°
2026-05-07 12:02 41.62942 14.04192 20525 ft 352 kts 167°
2026-05-07 12:02 41.60723 14.05619 20167 ft 357 kts 150°
2026-05-07 12:02 41.58889 14.07851 19765 ft 361 kts 139°
2026-05-07 12:03 41.57179 14.10329 19356 ft 360 kts 137°
2026-05-07 12:03 41.55528 14.12796 18947 ft 358 kts 137°
2026-05-07 12:03 41.53857 14.15285 18457 ft 361 kts 137°
2026-05-07 12:03 41.52163 14.17783 18059 ft 359 kts 137°
2026-05-07 12:04 41.50498 14.20216 17609 ft 358 kts 137°
2026-05-07 12:04 41.48803 14.22678 17207 ft 357 kts 137°
2026-05-07 12:04 41.47143 14.25082 16982 ft 350 kts 137°
2026-05-07 12:04 41.45506 14.27450 16840 ft 342 kts 137°
2026-05-07 12:05 41.43926 14.29732 16672 ft 334 kts 137°
2026-05-07 12:05 41.42355 14.31995 16528 ft 326 kts 139°
2026-05-07 12:05 41.40753 14.34010 16396 ft 315 kts 144°
2026-05-07 12:05 41.39104 14.35882 16276 ft 306 kts 145°
2026-05-07 12:06 41.37510 14.37691 16140 ft 300 kts 144°
2026-05-07 12:06 41.35945 14.39493 16024 ft 293 kts 144°
2026-05-07 12:06 41.34419 14.41266 15896 ft 286 kts 144°
2026-05-07 12:06 41.32897 14.42890 15664 ft 281 kts 152°
2026-05-07 12:07 41.31247 14.44252 15408 ft 279 kts 155°
2026-05-07 12:07 41.29572 14.45582 15132 ft 279 kts 154°
2026-05-07 12:07 41.27910 14.46919 14915 ft 277 kts 154°
2026-05-07 12:07 41.26297 14.48234 14710 ft 274 kts 154°
2026-05-07 12:08 41.24740 14.49721 14439 ft 280 kts 137°
2026-05-07 12:08 41.23750 14.52054 13805 ft 304 kts 106°
2026-05-07 12:08 41.23412 14.54840 13210 ft 314 kts 99°
2026-05-07 12:08 41.23162 14.57747 12698 ft 312 kts 98°
2026-05-07 12:09 41.22928 14.60559 12420 ft 303 kts 99°
2026-05-07 12:09 41.22674 14.63390 11728 ft 310 kts 99°
2026-05-07 12:09 41.22406 14.66220 11126 ft 313 kts 99°
2026-05-07 12:09 41.22135 14.69024 10777 ft 306 kts 99°
2026-05-07 12:10 41.21849 14.71801 10484 ft 298 kts 103°
2026-05-07 12:10 41.21054 14.74243 10207 ft 285 kts 129°
2026-05-07 12:10 41.19668 14.76031 9952 ft 272 kts 148°
2026-05-07 12:10 41.18103 14.77336 9693 ft 264 kts 151°
2026-05-07 12:11 41.16547 14.78587 9451 ft 257 kts 151°
2026-05-07 12:11 41.14927 14.79556 9157 ft 253 kts 173°
2026-05-07 12:11 41.13232 14.79414 8932 ft 246 kts 201°
2026-05-07 12:11 41.11780 14.78257 8671 ft 242 kts 225°
2026-05-07 12:12 41.10758 14.76512 8412 ft 240 kts 238°
2026-05-07 12:12 41.09919 14.74624 8138 ft 240 kts 241°
2026-05-07 12:12 41.09104 14.72686 7891 ft 239 kts 240°
2026-05-07 12:12 41.08255 14.70777 7676 ft 237 kts 239°
2026-05-07 12:13 41.07411 14.68952 7492 ft 235 kts 238°
2026-05-07 12:13 41.06555 14.67131 7195 ft 229 kts 238°
2026-05-07 12:13 41.05725 14.65378 6897 ft 222 kts 238°
2026-05-07 12:13 41.04916 14.63668 6589 ft 214 kts 238°
2026-05-07 12:14 41.04648 14.63101 6485 ft 211 kts 238°
2026-05-07 12:14 41.04385 14.62547 6384 ft 208 kts 238°
2026-05-07 12:14 41.03635 14.60962 6072 ft 200 kts 238°
2026-05-07 12:14 41.02912 14.59432 5787 ft 190 kts 238°
2026-05-07 12:15 41.02230 14.57988 5489 ft 181 kts 237°
2026-05-07 12:15 41.01597 14.56649 5277 ft 164 kts 237°
2026-05-07 12:15 41.01011 14.55406 5051 ft 152 kts 236°
2026-05-07 12:15 41.00455 14.54232 4815 ft 147 kts 236°
2026-05-07 12:16 40.99917 14.53093 4594 ft 147 kts 236°
2026-05-07 12:16 40.99370 14.51935 4385 ft 148 kts 236°
2026-05-07 12:16 40.98824 14.50779 4156 ft 147 kts 236°
2026-05-07 12:16 40.98273 14.49613 3917 ft 149 kts 237°
2026-05-07 12:17 40.97737 14.48474 3715 ft 147 kts 237°
2026-05-07 12:17 40.97198 14.47334 3501 ft 144 kts 237°
2026-05-07 12:17 40.96670 14.46213 3304 ft 146 kts 238°
2026-05-07 12:17 40.96125 14.45056 3087 ft 148 kts 238°
2026-05-07 12:18 40.95585 14.43912 2871 ft 148 kts 238°
2026-05-07 12:18 40.95037 14.42750 2653 ft 148 kts 238°
2026-05-07 12:18 40.94494 14.41597 2441 ft 149 kts 239°
2026-05-07 12:18 40.93943 14.40428 2206 ft 148 kts 238°
2026-05-07 12:19 40.93414 14.39301 1993 ft 143 kts 239°
2026-05-07 12:19 40.92882 14.38173 1791 ft 145 kts 238°
2026-05-07 12:19 40.92351 14.37047 1579 ft 145 kts 239°
2026-05-07 12:19 40.91816 14.35907 1369 ft 145 kts 238°
2026-05-07 12:20 40.91281 14.34769 1154 ft 146 kts 238°
2026-05-07 12:20 40.90749 14.33639 944 ft 146 kts 238°
2026-05-07 12:20 40.90222 14.32520 718 ft 142 kts 238°
2026-05-07 12:20 40.89703 14.31415 520 ft 140 kts 237°
2026-05-07 12:21 40.89192 14.30328 317 ft 141 kts 237°
2026-05-07 12:21 40.88699 14.29264 263 ft 122 kts 237°
2026-05-07 12:21 40.88324 14.28485 280 ft 79 kts 238°
2026-05-07 12:21 40.88112 14.28038 294 ft 35 kts 238°
2026-05-07 12:22 40.88051 14.27907 295 ft 9 kts 238°
2026-05-07 12:22 40.88014 14.27831 296 ft 10 kts 237°
2026-05-07 12:22 40.87955 14.27796 300 ft 10 kts 163°
2026-05-07 12:22 40.87899 14.27849 300 ft 10 kts 142°
2026-05-07 12:23 40.87856 14.27914 298 ft 10 kts 106°
2026-05-07 12:23 40.87879 14.27991 296 ft 7 kts 51°
2026-05-07 12:23 40.87889 14.28007 295 ft 3 kts 51°
2026-05-07 12:23 40.87903 14.28029 296 ft 4 kts 51°
2026-05-07 12:24 40.87923 14.28061 296 ft 5 kts 51°
2026-05-07 12:24 40.87949 14.28103 294 ft 7 kts 51°
2026-05-07 12:24 40.87962 14.28163 291 ft 7 kts 94°
2026-05-07 12:24 40.87955 14.28232 294 ft 8 kts 97°
2026-05-07 12:25 40.87953 14.28253 292 ft 0 kts 98°
2026-05-07 12:25 40.87952 14.28259 291 ft 1 kts 98°
2026-05-07 12:25 40.87951 14.28272 289 ft 2 kts 98°
2026-05-07 12:25 40.87948 14.28298 289 ft 5 kts 98°
2026-05-07 12:26 40.87970 14.28320 290 ft 5 kts 357°
2026-05-07 12:26 40.88003 14.28313 288 ft 5 kts 342°
2026-05-07 12:26 40.88015 14.28308 288 ft 0 kts 342°